{"data":{"norad_id":66650,"epoch":"2026-05-24T16:39:01.650240Z","epoch_age_seconds":111950,"freshness":"FRESH","line1":"1 66650U 25274A   26144.69376910  .00002682  00000+0  26445-3 0  9992","line2":"2 66650  97.7479  74.1247 0013614  74.3930 285.8791 14.92779753 26703","mean_motion":14.92779753,"eccentricity":0.0013614,"inclination_deg":97.7479,"raan_deg":74.1247,"arg_perigee_deg":74.393,"mean_anomaly_deg":285.8791,"bstar":0.00026445,"rev_number":2670,"period_min":96.464330863684,"perigee_km":579.78729808734,"apogee_km":598.75816129935,"semimajor_km":6967.4097296933,"source":"CELESTRAK","updated_at":"2026-05-25T13:38:06.379298Z"}}